SCP
1 1 1 1 1 1 1 1 1 1 1 1 1 0 0 0 0 0 0 1 1 1 0 0 0 0 0 0 0 0 0 0 0 0 0 0 0 0 0 0 0 0 0
1 1 1 1 1 1 1 1 1 1 1 1 1 0 0 0 0 1 1 1 1 1 1 0 0 1 1 1 0 0 0 0 0 0 0 0 0 0 0 0 0 0 0
1 1 1 1 1 1 1 1 1 1 1 1 1 1 1 1 1 1 1 1 1 1 1 1 1 1 1 1 1 1 1 1 1 0 0 0 0 0 0 0 0 0 0
1 1 1 1 1 1 1 1 1 1 1 1 1 1 1 1 1 1 1 1 1 1 1 1 1 1 1 1 1 1 1 1 1 1 1 1 1 1 0 0 0 0 0
1 1 1 1 1 1 1 1 1 1 1 1 1 1 1 1 1 1 1 1 1 1 1 1 1 1 1 1 2 2 2 2 1 1 1 1 1 1 0 0 0 0 0
1 1 1 1 1 1 1 1 1 1 1 1 1 1 1 1 1 2 1 1 1 1 1 1 1 1 1 1 2 2 2 2 2 1 1 1 1 1 1 1 1 0 0
1 1 1 1 1 1 1 1 1 1 1 1 1 1 1 1 1 2 1 1 1 1 1 1 2 1 1 1 1 1 2 2 1 1 1 1 1 1 1 1 1 1 1
1 1 1 1 1 1 1 1 1 1 1 1 1 1 1 1 1 1 1 1 1 1 1 1 2 2 2 1 1 1 1 2 2 1 1 1 1 1 1 1 1 1 1
1 2 2 1 1 1 1 1 1 1 1 1 1 1 1 1 1 1 1 1 1 1 1 1 1 2 2 2 2 2 2 2 2 2 2 1 1 1 1 1 1 1 1
2 2 2 2 1 1 1 1 1 1 2 2 2 1 1 1 1 1 1 1 1 1 1 1 1 1 2 2 2 2 2 2 2 2 2 2 1 1 1 1 1 1 1
2 2 2 2 1 1 1 1 1 1 2 2 2 2 1 1 1 1 1 1 1 1 1 1 1 1 2 2 2 2 2 2 2 2 2 2 2 2 1 1 1 1 1
3 3 3 2 2 1 1 1 1 1 2 2 2 2 1 1 1 1 1 1 1 1 1 1 1 1 1 1 1 1 1 1 1 1 2 2 3 2 2 1 1 1 1
3 3 3 2 2 2 1 1 1 1 1 2 2 1 1 1 1 1 1 1 1 1 1 1 1 1 1 1 1 1 1 1 1 1 1 2 2 2 2 2 2 1 1
3 3 4 3 2 2 2 1 1 1 1 1 1 1 1 1 1 1 1 1 1 0 1 1 1 1 1 1 1 1 1 1 0 0 0 1 1 1 2 2 2 2 1
3 4 4 4 3 2 2 2 2 2 2 1 1 1 1 1 1 1 1 1 1 0 0 1 1 1 1 1 1 1 1 1 0 0 0 0 0 0 1 1 1 1 1
3 3 4 3 2 2 3 2 2 2 2 2 1 1 1 1 1 1 1 1 1 1 1 1 1 1 1 1 1 1 1 1 0 0 0 0 0 0 0 0 0 1 1
3 3 3 3 3 3 3 2 2 2 2 2 2 1 1 1 1 1 1 1 1 1 1 1 1 1 1 1 1 1 1 1 0 0 0 0 0 0 0 0 0 0 0
4 4 4 4 3 3 3 3 3 2 2 2 2 2 2 2 1 1 2 2 2 1 1 1 1 1 1 1 1 1 1 1 0 0 0 0 0 0 0 0 0 0 0
4 5 5 5 4 4 4 4 3 3 2 2 3 2 2 2 2 2 2 2 2 1 1 1 1 1 1 1 1 0 0 0 0 0 0 0 0 0 0 0 0 0 0
6 6 6 5 5 5 5 5 4 4 3 3 3 2 2 2 2 2 2 2 1 1 1 1 1 1 1 1 1 0 0 0 0 0 0 0 0 0 0 0 0 0 0
6 7 6 6 5 5 5 5 5 4 4 4 3 2 1 1 1 1 1 1 1 1 1 1 1 1 1 1 1 1 0 1 1 1 0 0 0 0 0 0 0 0 0
7 7 7 7 6 5 4 5 6 6 5 4 3 2 1 1 1 0 0 0 1 1 1 1 1 1 1 1 1 1 1 1 1 1 1 1 0 0 0 0 0 0 0
8 8 8 8 8 7 4 4 5 6 6 4 3 2 1 0 0 0 0 0 0 0 1 1 1 1 1 1 1 1 1 1 1 1 1 1 0 0 0 0 0 0 0
9 9 10 10 10 8 4 2 3 5 5 4 3 2 1 1 0 0 0 0 0 0 0 1 1 1 1 1 1 1 1 0 1 1 1 0 0 0 0 0 0 0 0
10 11 11 11 12 9 4 1 1 3 4 4 2 2 1 1 1 0 1 1 1 0 0 0 0 1 1 1 1 1 1 1 1 0 0 0 0 0 0 0 0 0 0
11 11 12 12 12 9 4 1 1 3 4 3 2 2 1 1 1 0 1 1 1 1 0 0 0 0 1 1 1 1 1 1 0 0 0 0 0 0 0 0 0 0 0
Wind_Speed
1 2 0 0 1 1 2 2 1 1 1 1 1 1 1 3 4 6 6 12 12 11 10 10 9 9 9 9 8 8 8 8 8 7 7 7 7 7 7 7 7 6 6
2 1 0 0 0 0 1 1 1 2 1 1 1 1 0 2 3 5 7 8 11 11 10 10 10 9 9 9 9 9 9 8 8 8 8 8 8 7 8 8 8 7 7
1 1 1 1 1 1 1 1 1 1 2 2 1 1 1 1 2 3 6 6 7 10 11 11 11 10 10 10 10 9 9 8 8 9 9 8 8 8 8 8 8 8 8
1 1 1 1 1 1 1 1 1 1 1 1 0 1 1 2 3 4 4 5 5 7 10 12 12 11 11 11 11 10 10 9 9 8 8 8 8 8 8 8 8 8 8
2 2 1 1 2 1 1 2 1 1 1 1 2 2 1 2 3 5 4 5 5 5 6 11 13 12 12 12 12 11 10 10 9 9 10 10 9 9 8 8 9 9 9
2 2 2 2 2 1 1 1 0 1 2 2 3 1 2 2 2 3 4 4 4 6 6 6 7 8 11 11 11 11 11 10 10 10 11 11 11 10 9 9 10 10 10
1 2 2 1 2 1 1 1 1 1 2 2 1 1 1 2 3 2 2 2 3 4 5 6 6 5 5 10 10 10 11 10 10 10 10 10 11 10 10 10 10 10 10
2 2 2 1 1 1 1 2 1 1 2 1 0 1 1 2 2 3 2 2 2 2 2 5 5 5 3 3 6 10 9 9 8 8 7 8 9 9 9 9 10 11 10
1 1 0 1 1 1 1 2 2 2 2 1 1 1 1 1 1 2 1 1 1 2 1 1 3 4 4 3 3 6 8 7 8 8 7 6 6 6 7 8 8 9 9
2 1 1 1 1 1 1 2 1 1 2 2 1 1 2 1 1 1 2 0 1 1 1 1 1 2 3 3 3 4 6 6 6 6 6 6 6 6 7 8 8 8 8
1 1 0 0 0 1 1 2 2 1 1 2 1 1 2 2 2 1 1 1 1 1 0 1 0 1 1 2 3 4 5 5 5 5 5 6 6 6 7 7 8 9 9
1 1 1 0 1 1 1 1 1 1 1 1 1 1 1 1 1 1 1 1 1 1 1 0 1 1 1 2 2 3 4 4 3 2 2 3 4 5 5 6 7 7 8
0 1 1 0 0 0 1 1 1 1 1 1 1 1 1 1 1 1 1 1 1 1 0 1 2 2 3 3 4 6 5 4 3 2 1 1 1 1 2 3 3 4 4
1 1 1 1 2 2 2 1 1 1 1 1 2 1 1 1 1 0 1 1 1 0 1 2 2 4 4 4 5 6 5 6 4 4 4 3 3 3 4 3 2 1 1
1 2 2 2 2 2 2 2 2 2 2 2 2 2 2 2 2 1 0 1 1 1 1 1 2 3 3 4 5 4 5 8 9 8 7 7 6 6 6 6 6 5 5
3 3 3 3 2 2 3 2 2 2 3 2 2 2 2 2 2 1 1 0 1 2 1 1 1 2 3 4 6 5 6 10 10 9 9 9 9 9 8 8 8 7 7
3 3 3 3 3 3 3 3 3 4 4 3 3 3 3 2 2 2 2 1 1 2 3 2 2 3 4 4 4 4 4 5 6 10 11 11 11 11 11 10 10 9 9
3 3 3 3 3 4 4 4 4 4 4 4 4 5 5 4 4 3 2 2 2 2 3 3 2 2 3 3 3 4 4 5 5 11 12 12 12 12 12 11 11 10 10
4 4 4 4 4 4 4 4 4 4 5 5 5 6 6 6 5 4 3 3 3 3 3 4 3 2 2 2 3 4 5 4 6 8 11 12 13 13 13 13 12 11 10
4 4 4 5 5 5 5 4 4 5 5 5 6 6 6 6 5 4 4 4 4 3 3 4 3 3 3 2 2 3 4 3 4 5 7 8 10 12 13 13 12 11 10
6 5 5 5 5 5 6 5 4 5 5 5 5 6 7 9 11 7 5 5 4 4 4 4 4 3 3 2 2 1 3 3 4 3 3 4 4 4 5 8 10 10 9
5 5 6 6 7 6 8 9 6 4 4 5 4 4 6 8 9 10 11 10 8 6 4 4 4 3 3 2 1 2 2 2 2 1 2 2 3 3 3 4 7 8 8
5 6 6 7 7 7 9 9 8 4 5 5 5 5 5 7 7 5 7 8 9 10 8 5 4 3 3 2 2 2 2 2 2 1 1 2 3 3 3 5 7 7 7
5 5 5 6 5 7 9 8 7 4 6 6 6 6 6 6 7 6 5 6 6 6 6 5 4 4 4 2 1 1 2 3 3 2 1 2 2 2 3 3 5 6 6
5 5 5 5 5 5 8 8 6 3 5 6 7 7 6 6 9 7 5 4 4 4 6 7 6 5 5 5 4 2 2 2 2 1 1 1 2 2 2 2 3 5 4
5 5 5 5 5 4 7 9 7 2 4 5 5 6 9 7 8 7 4 3 3 2 2 3 3 3 3 3 4 3 2 1 2 2 1 1 1 1 1 1 2 3 2
Wind_Direction
104 100 51 53 209 149 159 192 197 144 208 231 235 187 141 103 114 126 143 161 162 166 170 175 177 178 180 183 186 189 192 193 193 192 191 191 191 192 193 192 191 193 194
82 93 149 290 303 100 130 200 185 152 213 243 222 157 142 111 125 139 147 163 169 173 178 182 184 186 188 189 193 197 203 203 200 199 200 202 203 205 205 204 205 206 207
131 163 218 225 231 219 161 203 266 209 213 223 191 194 173 151 154 140 150 163 173 185 188 190 191 194 196 198 202 204 205 206 206 207 208 209 209 212 214 214 214 214 214
181 231 235 231 218 227 211 219 240 259 267 293 253 249 193 167 173 180 173 176 175 181 193 199 198 200 203 205 208 210 210 210 208 208 209 211 213 214 217 219 219 218 217
193 223 251 230 239 230 221 241 162 244 290 280 246 221 222 211 193 203 189 188 183 173 176 196 201 203 208 211 214 214 214 213 212 213 215 215 214 215 219 223 223 221 221
207 220 233 215 239 241 224 224 209 243 267 269 276 269 244 229 218 209 197 193 189 182 179 179 188 206 212 214 214 217 218 218 216 217 218 219 219 219 220 222 224 225 225
226 227 277 222 225 235 233 231 214 245 256 251 276 290 274 258 238 209 204 188 196 185 170 166 175 185 199 215 219 217 219 221 220 221 223 224 224 224 224 225 225 225 224
230 226 217 253 246 256 249 268 265 261 270 267 229 274 291 300 288 236 198 190 196 167 178 182 173 169 176 182 205 213 217 222 223 221 221 224 227 228 228 230 230 226 222
223 276 259 269 294 270 220 229 241 245 258 272 226 200 225 247 298 297 247 198 157 139 151 136 150 156 167 164 179 205 210 214 219 221 217 218 224 228 229 230 231 229 227
207 201 212 242 279 308 302 261 222 232 244 262 271 242 239 236 212 293 314 328 147 141 165 193 178 158 163 160 151 155 187 200 208 217 219 220 223 227 231 234 236 236 234
207 171 118 44 309 288 300 304 330 288 271 272 271 273 270 259 226 206 254 292 332 344 288 221 113 114 134 144 150 159 162 179 196 212 221 225 228 234 237 240 243 244 243
170 139 158 207 295 313 302 288 288 277 282 286 292 290 279 268 255 211 222 242 243 261 267 357 93 111 121 105 118 118 143 156 169 190 218 229 229 232 238 247 251 249 247
136 88 81 92 305 303 323 320 290 308 325 320 291 289 292 289 277 232 194 226 249 266 76 54 52 51 66 69 67 76 87 106 125 134 142 170 211 221 223 240 257 267 264
42 80 91 80 51 24 9 10 27 18 25 359 345 348 333 331 331 289 174 168 193 284 50 50 45 50 63 70 71 65 69 78 88 93 94 90 78 72 69 66 56 40 16
59 67 84 75 58 38 24 36 52 28 34 38 23 15 2 346 344 339 356 157 161 167 110 70 61 55 69 77 76 71 71 73 73 75 76 77 74 69 66 64 61 59 62
57 58 54 58 56 47 42 46 54 45 53 39 41 34 15 348 341 358 358 350 150 154 135 85 85 78 78 83 84 80 80 80 76 79 81 79 75 71 67 64 62 63 64
67 65 56 56 57 47 43 49 52 50 50 40 31 34 24 13 7 1 1 31 79 112 118 90 72 82 79 86 89 89 88 84 80 82 83 80 76 71 68 65 63 60 59
71 71 66 61 62 56 50 49 51 48 48 44 38 37 26 25 21 21 19 35 57 93 113 113 99 87 73 92 101 97 90 90 85 82 81 81 77 73 68 65 63 61 59
67 66 65 61 57 57 56 56 60 57 56 51 45 43 35 31 29 27 36 36 44 71 88 104 99 89 78 79 91 88 86 81 89 91 86 78 76 74 70 67 64 61 59
73 67 66 65 62 56 50 52 67 65 65 61 57 54 45 38 30 24 45 39 50 66 83 94 94 85 71 64 78 90 92 80 78 83 84 87 81 76 71 67 65 64 61
83 74 72 67 63 56 38 30 58 72 65 66 68 72 67 62 54 49 55 46 49 61 73 81 83 78 68 69 56 71 89 94 76 75 94 98 94 81 71 65 64 65 64
79 75 71 65 60 54 30 33 42 61 60 61 61 69 80 68 63 65 68 63 57 65 67 74 75 79 75 72 68 90 99 94 85 45 85 95 105 93 86 76 73 72 69
88 80 77 77 71 47 32 31 29 63 70 63 58 50 57 60 57 59 69 71 61 60 64 77 82 73 80 75 89 91 84 95 100 132 108 90 94 94 93 86 88 80 73
94 88 83 85 80 50 31 27 17 84 79 69 61 58 61 50 41 41 70 73 68 57 58 71 74 70 65 55 88 120 129 115 102 82 88 100 94 100 104 105 103 92 78
108 103 95 91 83 51 25 21 14 97 91 81 72 59 58 55 29 38 68 80 85 83 72 78 88 89 78 63 60 68 72 112 120 101 44 93 112 107 116 121 136 135 114
120 113 104 97 90 68 33 27 15 89 107 105 96 78 60 51 36 40 57 63 69 63 80 100 98 93 95 84 68 57 44 66 99 96 54 85 141 140 131 149 155 168 173